Wind_Speed
13 14 14 14 14 15 15 15 16 17 17 18 18 19 19 18 19 19 20 22 22 23 24 25 26 27 28 28 28 28 28 28 28 28 29 29 29 30 30 31 32 33 34 34 36 37 38 39 40 40 41 41 40 41 40 40 40 39 40 40 39 39 41 43 45 44 38 36 36 33 31 33 32 32 32 30 30 32 35 35 36 38 38 38 42
11 12 13 13 13 14 15 15 15 16 17 18 18 18 18 19 20 21 22 23 24 24 25 25 26 26 26 26 26 26 26 26 27 27 27 28 28 29 29 30 30 31 32 33 33 35 36 37 38 38 39 40 40 41 41 40 40 39 39 40 40 39 40 42 45 46 42 37 37 36 34 34 34 34 34 32 29 31 34 35 36 37 38 38 41
11 11 12 12 13 13 13 14 15 15 16 17 17 18 19 20 21 22 22 23 23 24 24 24 24 24 24 24 24 25 25 26 26 26 26 27 27 27 28 28 29 29 30 31 31 32 34 35 36 37 37 38 39 40 40 40 40 40 39 39 40 39 39 41 43 46 46 41 39 38 36 35 35 35 36 36 33 31 32 34 35 37 39 39 41
11 11 12 12 12 12 12 13 14 15 15 16 17 18 19 20 20 21 21 21 22 22 22 22 22 22 23 23 24 24 25 24 24 24 24 24 24 24 25 25 26 27 28 28 29 30 31 32 34 35 36 36 37 38 39 40 40 40 40 40 40 40 39 40 41 44 46 45 41 40 39 38 37 36 37 38 37 34 33 33 34 37 39 39 40
11 11 11 11 11 11 12 13 13 14 15 16 17 18 18 18 19 19 19 20 20 20 20 20 21 21 22 22 22 21 21 21 21 21 22 23 23 24 24 25 26 27 27 28 29 29 30 31 32 33 35 35 36 37 38 39 39 39 40 40 41 41 40 40 41 43 45 46 44 42 42 41 39 39 39 39 39 38 35 34 33 36 39 40 40
11 11 11 11 11 11 12 13 13 14 15 16 16 16 16 17 17 17 17 17 17 18 19 19 20 20 19 18 18 18 19 20 21 22 23 24 24 25 26 27 27 28 29 29 30 31 31 32 33 34 35 36 37 38 38 39 39 40 40 41 41 41 41 41 41 42 44 46 45 44 44 43 41 40 40 39 39 39 38 35 34 34 37 40 41
11 11 11 11 11 11 12 12 13 13 14 14 14 14 14 15 15 15 15 16 16 17 17 17 17 16 16 17 18 19 20 21 23 24 24 25 26 27 27 28 28 29 30 30 31 32 32 33 34 35 36 37 38 39 40 41 41 40 41 42 42 42 42 41 42 43 44 45 45 45 44 45 44 42 40 39 40 41 39 37 35 34 35 38 40
10 10 10 10 11 11 11 12 12 12 12 12 12 13 12 12 13 13 14 15 15 15 14 14 15 15 17 18 19 21 22 23 23 24 26 27 27 28 28 29 29 30 31 31 32 32 33 34 35 36 37 38 39 40 41 43 43 43 43 43 44 44 43 43 42 43 44 44 45 45 45 45 45 43 41 41 41 41 39 37 36 35 34 36 38
9 9 10 10 10 10 10 10 10 10 10 10 10 10 10 11 11 12 12 12 12 12 12 13 15 16 18 19 21 22 23 24 25 26 27 28 29 30 30 31 31 32 32 33 33 34 34 35 35 36 37 38 39 39 40 41 43 44 45 45 46 46 45 45 44 44 44 45 44 44 45 45 45 44 43 42 42 41 39 39 38 36 34 35 37
9 9 9 8 8 8 8 8 8 8 8 8 8 8 9 10 10 10 9 9 9 10 12 14 16 17 19 20 21 22 23 25 26 27 28 29 30 31 32 33 34 34 35 35 35 36 36 37 37 37 38 38 38 39 39 39 40 42 43 44 46 47 48 47 46 45 45 46 45 44 45 45 44 43 43 43 42 40 40 41 39 36 35 37 38
8 8 7 7 6 6 6 6 6 6 6 6 6 7 8 7 7 7 7 8 9 11 13 14 16 17 19 20 22 23 24 25 26 28 29 31 32 33 34 34 35 36 37 37 37 38 38 38 39 39 40 40 40 40 39 39 39 39 40 40 41 44 46 48 48 47 47 47 46 44 45 45 43 42 43 43 42 41 40 40 40 37 36 39 40
7 6 6 5 5 5 5 5 4 4 4 5 6 6 5 4 5 6 7 9 10 11 13 15 16 18 19 21 22 23 25 26 27 29 30 31 33 34 35 36 37 37 38 39 40 40 40 40 40 40 40 41 41 42 41 40 40 39 39 39 38 39 41 44 46 47 47 48 47 45 44 44 43 42 42 42 43 43 41 40 40 39 37 38 40
6 5 4 4 4 3 3 3 2 3 3 4 4 2 2 4 5 6 8 9 11 12 14 15 17 18 20 21 23 24 25 27 28 29 31 32 33 34 36 37 39 40 40 41 41 42 42 42 41 41 41 41 42 43 43 43 42 41 40 39 38 38 38 39 41 43 45 47 49 47 44 43 43 42 40 40 42 44 43 40 39 39 38 38 38
5 4 3 3 2 2 2 1 1 2 2 2 1 2 3 4 6 7 9 10 11 13 15 16 18 19 21 22 23 25 26 27 28 30 31 32 34 35 37 38 39 40 41 42 42 42 42 43 42 42 42 42 42 43 44 44 44 44 42 40 39 38 37 37 38 39 40 42 46 47 45 43 43 41 39 40 41 42 43 41 38 37 38 37 36
4 3 2 2 1 1 0 0 1 1 1 1 1 2 4 5 6 8 9 11 12 14 16 17 19 20 21 23 24 25 26 27 28 29 31 32 34 36 37 38 39 40 41 41 42 42 42 42 42 42 42 42 42 42 43 43 43 43 42 41 39 38 37 36 36 36 37 38 41 44 44 43 42 40 39 40 41 41 41 41 38 37 37 37 36
3 2 2 2 2 2 2 2 2 2 2 2 2 3 5 6 7 8 10 12 13 15 16 18 19 21 22 23 24 25 26 27 28 29 31 32 34 36 37 38 38 39 39 39 39 40 40 40 41 41 41 41 41 41 41 41 42 41 40 38 36 34 33 32 32 33 35 36 38 39 41 42 41 38 37 39 40 39 39 40 38 37 38 37 36
3 3 3 3 3 3 3 3 3 3 2 1 3 4 5 7 8 9 11 13 14 15 17 18 20 21 22 23 24 25 26 28 29 30 31 33 34 36 37 38 38 38 38 37 37 37 37 38 39 40 40 41 42 43 43 42 42 41 38 35 32 31 30 28 28 28 30 33 35 37 37 39 40 37 35 38 39 36 37 39 38 37 38 38 37
3 4 5 5 5 4 4 4 4 2 1 2 3 5 6 7 9 10 12 14 15 16 17 19 20 21 22 23 25 26 27 28 29 31 32 34 35 36 37 38 38 37 37 36 36 35 35 36 37 38 40 42 43 44 45 45 43 42 40 37 34 33 32 29 26 24 24 26 29 32 33 35 38 35 33 37 38 35 35 37 36 36 38 38 36
5 6 6 6 6 5 5 5 3 1 1 3 4 5 6 8 10 12 13 14 16 17 18 20 21 21 22 24 25 26 27 28 30 31 33 35 36 37 38 38 38 38 38 36 35 34 34 35 36 38 40 41 43 44 44 45 44 43 41 39 38 36 34 32 30 27 25 23 23 26 28 31 34 33 32 35 37 34 35 36 36 37 39 38 35
7 7 7 7 7 6 6 4 2 0 2 3 4 6 8 10 11 12 14 15 16 18 19 20 21 22 23 24 25 26 27 29 30 32 34 35 37 38 38 39 39 39 39 37 36 35 34 35 36 38 39 40 41 41 41 42 41 39 38 37 36 35 33 31 30 31 31 29 23 20 21 24 29 31 31 34 36 35 36 38 38 39 39 37 35
8 8 8 8 8 7 5 3 1 1 2 3 5 8 10 11 12 13 14 16 17 18 19 20 21 22 23 24 25 26 27 29 31 32 34 36 37 38 39 39 40 39 38 37 36 36 35 36 37 38 39 39 39 39 39 38 36 34 32 32 31 31 29 27 26 26 27 28 26 21 18 18 23 27 29 32 34 35 36 37 38 39 38 36 36
9 9 9 9 9 7 4 2 1 1 3 5 7 9 10 11 12 13 15 16 17 18 20 21 22 23 24 25 25 26 27 29 30 32 34 35 37 38 39 39 38 38 37 36 36 36 36 37 37 38 38 38 37 37 37 36 34 31 29 29 29 28 26 23 22 22 21 21 22 21 19 17 18 22 26 28 31 33 35 36 36 35 34 35 36
9 10 10 10 8 6 4 2 1 3 5 6 8 9 10 11 13 14 15 17 17 19 20 21 22 23 24 25 25 26 27 29 30 32 33 35 36 37 37 38 37 36 36 36 36 36 36 36 36 37 37 36 36 36 35 35 34 32 29 29 30 29 26 21 19 20 19 16 14 15 16 16 17 19 22 24 27 31 35 37 38 36 33 34 36
10 11 10 9 7 5 4 3 3 4 6 7 8 9 10 11 13 14 15 16 17 18 20 21 22 23 23 24 25 26 27 28 30 31 33 34 35 36 36 36 36 36 36 36 37 37 36 36 35 35 35 35 35 35 34 34 35 34 32 30 30 31 29 24 21 20 20 19 16 12 10 11 14 18 21 23 24 27 32 35 36 35 34 36 36
11 11 9 8 6 5 4 4 4 5 5 6 7 9 10 11 12 14 15 16 17 18 20 21 22 22 23 23 24 25 26 27 29 30 32 33 34 35 35 35 35 35 36 36 36 36 35 34 33 34 34 34 34 35 34 34 35 36 34 33 32 33 32 30 26 23 21 22 21 18 14 8 7 12 18 21 22 22 26 30 31 32 34 36 35
11 10 8 7 6 5 4 4 4 5 5 6 7 8 9 10 12 13 14 16 17 18 20 21 22 23 23 23 24 25 26 27 28 29 31 32 33 34 34 34 33 34 34 35 35 34 34 33 32 32 33 34 34 35 35 36 36 36 37 36 35 35 36 35 32 28 24 23 23 23 21 16 10 5 10 16 19 20 21 25 28 29 30 29 28
11 9 7 6 5 5 4 4 4 4 5 6 7 8 9 10 11 13 14 15 16 18 19 21 22 23 23 24 24 25 26 27 28 29 30 31 33 34 34 34 34 33 34 35 35 35 34 34 32 31 31 32 33 34 35 36 37 37 38 39 38 37 37 36 35 32 29 25 23 23 23 20 14 8 5 7 13 17 20 23 27 27 25 23 22
11 9 7 6 5 5 4 4 4 4 4 5 6 7 9 10 11 12 13 14 16 17 19 20 21 22 23 24 25 26 27 28 29 30 31 32 33 34 34 35 35 35 35 35 36 35 35 34 33 31 31 31 32 33 35 36 38 39 40 40 41 40 39 38 37 35 34 30 26 22 22 22 20 15 10 6 5 8 13 18 22 23 21 20 20
11 9 8 7 6 5 4 3 3 4 4 5 6 7 8 9 10 11 13 14 16 17 19 20 21 22 23 24 25 26 27 28 29 31 32 32 34 34 35 35 35 35 34 34 34 35 34 34 33 33 32 32 33 34 36 36 38 39 40 41 41 42 42 43 42 40 38 36 32 28 25 24 23 21 17 13 9 6 5 8 12 15 17 16 16
11 9 8 7 6 5 4 3 2 3 4 4 6 7 8 9 10 11 12 13 15 17 19 20 22 23 24 25 25 26 27 28 29 30 31 32 33 33 34 34 33 33 32 32 33 33 33 34 34 34 34 34 34 35 37 38 38 39 39 40 41 43 44 45 45 44 42 40 38 35 32 28 25 23 22 20 17 14 10 7 6 8 10 10 10
11 10 9 8 6 5 3 2 1 2 3 4 5 6 8 9 9 10 12 13 15 16 18 20 21 23 24 25 26 26 27 27 28 29 30 31 32 32 32 33 32 31 31 31 31 31 32 34 35 35 35 35 35 36 37 38 38 39 39 40 41 42 43 44 44 44 44 43 42 40 37 35 31 27 24 22 21 20 18 14 10 6 3 2 4
12 11 9 8 7 5 4 2 1 1 2 3 5 6 7 8 9 10 12 13 14 16 17 19 21 22 23 24 24 25 26 26 27 28 29 30 31 32 32 32 31 30 30 29 30 30 32 34 36 36 36 36 36 36 36 37 38 39 39 39 39 41 42 42 42 43 43 43 43 42 40 39 37 32 28 24 22 20 19 19 17 14 12 9 4
12 11 10 9 7 6 4 3 2 0 1 3 4 6 7 8 9 10 12 13 14 15 17 18 20 21 22 23 23 24 25 25 26 27 28 29 30 32 32 32 31 30 29 28 29 30 31 33 35 36 37 37 36 36 36 37 37 38 38 38 39 39 40 39 39 40 42 42 42 42 42 41 39 36 33 29 26 23 22 21 21 20 19 17 13
13 11 10 9 7 6 5 4 3 1 2 3 4 5 7 8 9 10 11 13 14 15 16 18 19 20 21 22 23 24 24 25 25 26 27 28 29 30 31 31 30 30 30 29 30 30 30 32 33 35 36 37 37 36 36 36 36 36 37 37 38 37 37 37 37 39 40 40 40 41 42 41 40 38 36 34 31 28 26 25 24 22 21 21 20
13 12 10 9 8 7 5 4 4 3 3 4 5 6 7 8 9 10 11 12 13 14 15 17 18 19 20 21 22 23 23 24 25 25 26 27 27 28 29 29 30 31 31 31 31 30 30 31 32 33 34 35 36 36 36 36 36 36 36 37 37 37 37 36 37 38 38 38 39 39 39 39 39 38 37 36 34 31 29 28 28 26 26 25 23
13 12 11 10 8 7 6 5 5 4 4 4 5 6 7 8 9 10 11 12 13 14 15 16 17 18 19 20 21 22 23 24 24 25 26 26 27 27 28 29 30 32 32 32 32 31 30 30 30 31 32 33 35 36 36 36 35 36 36 36 36 37 37 37 36 36 36 36 37 37 37 38 38 38 37 36 35 33 30 28 28 29 29 27 24
13 12 11 10 9 8 7 6 6 6 5 5 6 7 8 8 9 9 10 11 12 13 14 15 16 17 18 19 20 21 22 23 24 24 25 26 26 27 28 29 30 31 32 33 33 32 31 30 30 30 30 31 32 34 35 35 35 35 35 35 35 35 36 36 35 34 34 35 35 36 36 37 37 36 36 35 34 34 31 28 27 27 28 27 26
14 13 12 11 10 9 8 7 7 7 7 7 7 7 8 9 9 9 9 10 11 13 13 14 15 16 17 18 19 20 21 22 23 23 24 24 25 25 26 27 29 30 31 32 33 33 32 31 30 29 29 29 30 32 33 34 35 35 35 35 34 34 34 34 33 33 33 34 34 35 35 35 35 35 34 34 34 33 32 29 27 25 25 26 27
15 14 13 12 11 10 9 9 9 8 8 8 8 8 8 9 9 9 9 10 11 12 13 13 14 15 16 17 18 19 19 20 21 21 22 23 23 24 25 26 27 28 29 30 32 32 33 32 31 30 29 29 29 30 31 32 33 34 35 35 34 34 34 33 33 33 33 33 33 33 33 34 34 33 33 33 33 32 31 30 29 27 25 25 26
16 15 14 13 12 11 10 10 10 9 9 9 9 9 9 9 10 10 10 10 11 12 12 13 14 14 15 16 16 17 18 19 19 20 20 21 22 23 24 24 25 26 27 28 30 31 32 32 32 31 30 29 29 29 29 30 31 32 33 34 34 34 34 33 33 33 32 32 32 32 32 32 32 32 32 32 32 31 30 29 29 29 27 26 25
16 15 14 14 13 12 12 11 11 11 11 10 10 10 10 10 11 11 10 10 11 12 12 13 13 14 14 15 15 16 17 18 18 19 19 20 21 22 22 23 24 25 25 26 28 29 30 31 31 31 31 30 30 29 28 28 29 29 30 32 32 33 33 33 32 32 31 31 31 31 31 31 31 31 31 30 29 29 29 28 28 28 27 27 25
17 16 16 15 14 14 13 12 12 12 12 12 11 11 11 11 12 12 11 11 11 12 12 13 13 13 14 14 15 15 16 17 17 18 18 19 20 21 21 22 23 23 24 25 26 27 28 29 30 31 31 31 31 31 30 29 29 29 29 29 30 31 31 31 31 31 30 30 30 29 29 29 30 30 29 28 27 27 27 27 27 26 26 26 25
18 17 17 16 16 15 14 14 13 13 13 13 13 12 12 12 13 13 13 12 12 12 12 13 13 13 13 14 14 15 16 16 17 17 17 18 19 19 20 21 21 22 23 23 24 25 26 28 28 29 30 31 31 31 32 31 31 30 29 29 29 29 30 30 30 30 30 30 29 28 27 27 27 28 28 27 27 26 26 26 26 25 25 25 24
18 18 17 17 16 16 16 15 15 15 14 14 14 13 13 13 14 15 15 14 13 13 13 13 13 14 14 14 14 15 15 16 16 16 16 17 17 18 19 19 20 20 21 21 22 23 24 25 27 28 29 30 30 30 31 32 32 32 31 31 30 29 29 29 29 30 30 30 29 28 27 26 25 25 26 26 26 25 24 24 24 24 23 23 23
18 17 17 17 18 17 17 17 17 16 16 15 15 15 14 15 15 16 16 16 15 15 15 14 14 14 14 14 14 15 15 16 16 16 16 16 16 16 17 18 18 19 19 19 20 21 22 23 24 26 27 28 29 29 30 30 31 32 32 32 32 31 30 30 29 29 29 29 29 28 27 26 25 25 25 25 25 25 24 23 22 22 22 21 21
19 18 18 19 19 19 19 19 19 18 17 17 16 16 16 16 16 17 17 17 16 16 16 16 16 16 16 15 15 15 15 15 15 16 16 16 16 16 16 16 17 17 18 17 17 18 19 21 22 23 25 25 27 28 28 29 30 30 31 32 32 32 32 31 30 29 28 28 28 27 26 25 24 24 23 23 23 23 23 22 21 21 20 20 20
20 20 20 20 20 20 20 20 20 19 18 18 18 17 17 17 17 17 18 18 18 17 17 18 18 18 17 17 16 16 15 15 15 15 16 16 16 16 15 15 16 16 17 17 16 16 17 18 20 21 23 24 25 26 26 27 28 29 30 30 31 31 31 31 31 30 29 27 26 26 26 25 24 23 22 21 21 21 21 21 21 20 20 19 18
21 22 22 22 22 22 22 21 21 20 20 20 19 19 18 18 18 18 18 18 18 18 18 18 19 19 19 19 19 18 17 17 16 16 16 16 17 17 16 15 15 16 16 16 16 15 15 16 18 19 21 22 23 24 24 25 26 27 28 29 29 30 30 30 30 30 30 29 27 25 24 24 23 23 22 21 20 20 20 20 19 19 19 18 18
23 23 23 23 23 23 22 22 21 21 21 21 21 20 20 19 19 19 19 19 19 19 19 19 19 20 20 20 20 20 19 19 18 18 17 17 17 17 17 16 15 15 16 16 16 16 15 15 15 17 18 20 21 22 23 23 24 25 26 27 28 29 29 29 29 29 29 29 28 27 25 23 22 22 21 20 19 19 18 18 18 17 17 17 17
23 23 24 24 24 23 23 23 23 23 23 23 22 22 21 21 20 20 20 21 20 20 20 20 20 20 21 21 21 22 21 21 20 20 19 18 18 18 18 17 16 16 16 16 16 16 15 15 14 15 16 17 19 20 20 21 22 23 25 26 27 27 28 28 29 28 28 28 27 27 26 25 23 21 20 19 19 18 17 17 16 16 16 15 15
24 24 24 24 23 23 23 23 24 24 25 25 24 23 23 22 22 22 22 22 22 22 21 21 21 21 21 21 22 22 23 22 22 22 21 20 20 19 19 18 17 17 16 16 16 16 16 16 15 15 15 16 17 18 19 19 20 22 23 24 25 26 27 27 27 27 27 27 27 26 26 25 24 23 21 19 18 17 17 16 15 15 14 14 14
Wind_Direction
239 240 241 242 243 244 247 253 259 265 271 276 281 283 285 286 287 288 290 293 295 297 299 299 299 300 301 302 304 305 305 305 305 305 305 305 304 303 301 300 299 298 297 296 296 295 294 294 293 293 293 292 291 289 288 287 285 284 283 282 279 278 278 279 280 281 280 279 279 278 276 275 274 275 276 274 268 263 260 259 259 256 252 247 239
233 235 235 238 242 245 251 257 264 271 277 282 286 288 290 291 292 292 294 296 299 300 301 301 303 305 306 308 309 309 310 310 309 309 308 307 306 304 303 302 300 299 298 296 295 294 293 293 292 292 292 292 291 290 289 288 287 285 283 282 280 278 276 277 277 278 278 276 274 273 272 272 274 273 273 274 272 266 261 258 259 258 254 248 244
230 233 235 240 245 251 258 265 272 279 283 288 291 292 294 293 294 295 297 299 301 302 304 306 309 311 313 314 315 315 315 314 313 312 311 310 310 309 309 307 306 305 303 301 299 297 296 294 293 292 291 291 291 290 290 289 288 287 285 283 281 279 277 276 276 276 276 274 272 271 270 268 270 271 270 271 272 270 266 261 258 258 257 251 247
232 236 240 246 252 260 268 274 279 285 288 291 293 293 294 294 295 298 300 303 305 308 310 312 315 317 319 319 319 319 320 320 321 322 323 323 324 323 322 321 319 317 315 313 311 308 305 302 299 297 295 293 291 289 289 288 288 287 286 284 282 280 278 276 275 275 276 274 272 271 269 265 264 267 268 268 269 269 269 267 261 257 257 254 250
237 243 248 255 262 269 275 280 285 288 291 292 292 293 294 296 299 303 306 309 311 314 316 319 321 323 324 325 327 330 332 333 335 336 337 336 335 334 331 329 327 325 323 321 318 316 313 311 308 305 303 300 297 293 290 288 287 286 285 284 282 280 278 276 275 274 274 274 272 271 270 267 263 263 264 266 268 268 267 268 265 259 256 255 253
244 250 257 263 269 276 280 285 288 289 290 291 291 294 298 302 306 309 312 315 318 321 323 326 328 330 334 338 342 343 343 342 342 342 340 338 336 335 333 331 330 328 325 324 321 319 317 315 313 310 308 305 303 300 297 293 290 288 285 283 282 281 279 276 274 273 272 272 272 270 270 269 265 262 262 264 266 267 266 266 266 262 256 255 254
251 257 264 270 275 281 284 286 288 288 290 292 295 301 305 310 314 317 319 322 325 329 332 335 339 343 347 348 347 346 344 343 343 341 338 336 335 335 334 332 331 329 328 326 324 322 321 318 316 314 311 309 306 304 301 299 295 292 289 285 282 280 279 276 274 272 270 270 270 269 269 268 266 263 261 262 263 264 265 266 267 265 260 255 252
257 263 270 275 280 283 285 287 288 290 294 299 304 309 314 319 322 324 328 331 335 339 343 346 349 349 349 347 345 344 343 343 341 339 338 338 337 336 336 335 334 332 331 330 328 326 325 323 320 318 315 313 311 309 306 304 301 298 295 291 287 283 280 278 275 273 271 269 268 268 267 266 266 264 260 259 260 261 263 265 265 265 263 258 253
261 267 272 276 279 282 285 289 292 297 303 308 314 319 323 326 328 332 337 343 348 350 351 350 349 348 346 345 344 343 343 342 341 341 341 341 340 339 339 338 337 336 335 333 332 330 328 326 324 321 318 316 314 312 310 309 306 303 300 296 293 289 284 281 278 275 273 269 267 266 265 264 264 264 260 257 257 260 261 261 262 262 262 259 255
262 266 270 273 277 281 287 293 300 307 313 320 324 327 330 332 336 343 351 356 356 352 350 349 348 347 345 344 344 343 343 344 344 344 344 344 344 343 342 341 340 339 338 336 335 333 331 329 327 324 321 318 315 312 311 310 309 307 304 301 298 294 290 285 282 278 275 272 268 265 263 262 263 264 262 258 255 257 259 259 260 262 261 258 255
260 263 267 272 278 286 294 302 312 320 325 330 333 333 335 341 351 2 2 357 352 349 348 348 346 346 345 345 345 345 345 346 347 347 347 346 346 345 344 343 342 341 340 338 337 336 334 332 330 327 324 321 318 315 312 311 310 308 306 304 302 298 294 290 285 281 278 274 271 267 263 261 261 262 262 259 253 252 255 257 258 260 261 259 256
255 260 265 273 282 292 303 313 323 331 335 338 337 337 347 3 13 9 357 350 347 347 348 348 347 347 347 347 347 347 348 349 349 349 349 348 347 346 345 345 344 343 342 340 339 337 335 333 331 329 326 324 322 319 316 314 312 310 308 306 303 300 297 294 289 285 281 277 273 269 266 262 259 258 260 259 254 249 249 254 257 258 260 260 258
251 255 262 274 286 297 312 323 330 337 339 338 338 353 24 23 9 356 348 345 346 348 349 349 349 349 349 349 349 350 351 351 350 350 349 348 348 347 347 346 346 344 343 341 340 337 335 334 332 331 329 328 326 323 321 320 318 315 312 308 305 302 299 295 291 288 284 280 276 272 268 265 260 256 258 260 256 248 245 248 253 257 259 260 261
242 247 258 271 284 300 314 323 329 333 335 336 22 52 30 8 353 346 345 346 348 350 350 350 351 350 350 351 351 351 352 351 351 351 350 349 349 349 349 348 346 345 343 342 340 338 336 335 334 333 333 332 330 328 325 323 321 318 316 312 309 306 302 297 293 289 285 282 278 274 271 268 263 257 255 258 257 249 243 242 248 255 258 260 261
232 239 250 257 262 257 206 211 264 273 173 138 84 33 6 350 344 344 346 348 350 352 352 352 352 352 352 352 352 351 351 351 351 351 351 351 351 351 350 349 347 346 344 342 341 339 338 337 337 336 336 335 334 331 328 326 323 320 318 315 312 308 305 300 295 290 286 282 279 276 271 269 266 260 253 255 256 250 242 239 244 251 256 259 259
222 224 215 204 182 169 182 196 187 168 151 120 38 4 347 340 342 345 348 351 353 353 353 352 353 353 353 352 351 351 350 350 350 351 352 353 353 352 352 350 349 348 346 345 343 342 341 340 340 339 339 338 337 335 333 331 329 326 322 319 314 310 305 300 296 291 287 283 280 277 272 268 266 262 254 253 255 250 241 238 241 247 252 256 258
206 194 176 170 167 174 187 181 164 153 132 56 3 345 337 339 344 349 352 355 355 353 352 353 354 353 352 351 350 350 350 350 350 351 352 354 354 354 353 352 351 350 349 349 348 346 345 344 343 342 342 342 342 340 339 337 336 335 331 327 322 317 312 304 295 289 286 283 280 278 274 269 266 262 254 252 254 248 238 235 238 244 250 253 256
184 171 166 166 173 178 174 164 153 140 82 0 341 334 337 344 350 354 356 357 355 353 353 355 355 353 352 351 351 351 351 351 351 352 354 355 355 355 355 354 354 353 354 353 352 351 349 347 346 346 346 346 345 344 343 342 341 339 337 336 333 328 323 316 305 292 284 281 278 276 273 269 266 262 252 250 252 245 237 236 238 243 248 250 253
169 165 167 170 173 170 160 153 148 129 349 331 329 334 344 352 356 358 358 357 355 355 355 356 355 353 352 352 352 352 351 352 353 354 356 357 357 357 357 356 356 356 357 357 356 354 352 351 351 351 350 349 347 346 344 343 341 338 335 334 332 328 324 324 321 313 303 292 280 271 267 264 264 261 251 247 249 243 238 243 243 242 246 248 250
166 166 169 170 167 161 154 151 153 213 319 322 334 347 355 359 360 359 359 357 357 357 357 357 355 354 354 354 354 353 353 354 356 357 358 358 358 358 358 358 359 359 359 359 357 356 356 355 355 354 353 351 349 348 346 343 340 337 333 332 331 328 325 325 324 319 315 311 300 281 266 256 256 257 251 246 245 239 237 243 245 243 245 247 247
166 168 170 167 162 157 154 155 171 287 325 343 355 360 1 1 1 1 360 359 359 359 358 357 356 355 355 355 355 355 355 357 358 359 359 360 -0 0 1 1 1 1 1 360 358 358 358 358 358 357 355 354 352 350 349 346 343 340 338 341 341 335 328 325 324 322 318 314 310 302 285 259 248 250 251 248 244 238 236 242 245 244 244 246 247
169 171 169 164 159 156 154 157 166 344 0 9 9 5 3 2 2 3 2 2 2 1 359 359 358 357 356 356 356 357 358 359 1 1 2 2 2 3 3 3 3 2 1 0 -0 -0 0 0 359 358 357 356 355 353 352 350 348 346 348 351 352 346 337 330 330 333 329 318 310 305 295 272 249 244 246 248 245 239 239 243 245 243 242 245 249
172 171 167 163 160 155 151 139 81 28 20 19 13 8 6 4 4 5 5 5 5 3 1 1 359 358 358 357 358 359 360 1 2 3 4 4 4 5 5 5 4 3 2 1 1 2 2 2 0 358 358 358 357 356 356 356 355 354 355 357 359 358 355 347 341 343 349 345 327 309 295 276 255 243 240 243 244 242 242 244 246 247 247 247 249
172 170 166 163 160 150 133 102 60 36 24 20 16 13 11 9 8 7 7 7 6 5 3 2 1 360 359 359 360 1 2 3 4 5 5 6 6 7 7 6 5 5 4 3 3 3 3 1 360 358 358 359 360 360 360 1 2 2 1 2 5 6 5 5 2 358 2 6 2 347 322 286 258 244 240 240 239 240 243 246 248 250 250 248 248
170 169 166 160 150 133 112 85 58 40 27 21 20 19 17 14 11 9 8 8 7 6 5 3 1 0 -0 0 1 3 5 5 5 6 7 7 7 7 8 8 7 7 6 5 4 4 3 1 358 357 357 359 1 2 3 5 7 8 6 5 9 10 10 13 14 12 12 15 17 18 13 352 291 254 246 243 239 235 235 240 245 249 248 247 245
169 167 163 153 136 117 101 81 61 45 30 25 25 24 22 18 15 11 9 9 9 8 6 3 2 1 0 1 3 5 6 7 7 7 8 8 8 8 8 9 10 9 8 6 6 5 3 1 358 357 358 359 2 5 7 8 10 12 11 10 11 12 12 13 16 17 18 20 23 25 26 25 13 322 265 253 250 246 241 240 247 251 250 245 242
168 164 157 145 127 112 99 85 69 51 35 31 30 28 24 21 16 12 10 9 9 9 7 4 2 2 2 2 4 6 6 7 8 8 9 9 9 9 8 9 10 10 9 8 7 6 4 1 0 359 359 1 3 6 9 10 11 13 14 14 13 13 11 12 15 17 19 22 25 26 28 31 31 19 341 283 261 256 254 250 248 247 246 245 248
167 160 153 142 128 116 105 93 79 58 41 35 33 29 24 20 17 12 9 9 9 8 7 6 4 4 3 3 5 6 7 7 7 8 9 10 10 11 10 9 10 10 9 9 8 6 4 2 2 1 1 2 4 7 11 13 13 14 15 15 15 14 13 14 18 18 19 23 27 28 29 32 35 35 28 7 305 269 259 250 242 239 243 252 258
164 158 152 143 134 127 119 106 88 65 47 37 31 26 21 18 15 10 7 8 8 6 6 6 6 6 5 4 6 7 7 8 8 9 10 11 11 11 10 10 10 9 8 8 7 6 4 3 3 3 4 6 8 9 12 14 15 15 15 15 16 16 15 16 18 19 19 22 26 29 30 32 34 37 37 34 27 6 308 267 251 245 246 254 263
164 160 155 147 143 141 136 123 99 70 48 34 26 20 16 14 11 8 6 7 7 7 6 5 5 6 6 5 6 7 9 9 10 11 11 12 13 12 11 10 10 8 6 6 6 5 5 7 7 7 8 10 11 12 12 14 16 17 16 16 17 17 17 17 17 18 19 22 26 29 31 33 34 35 35 35 36 33 22 354 307 268 249 248 261
164 162 158 154 154 155 155 152 121 71 43 25 17 13 11 7 5 4 4 6 6 6 6 6 6 6 6 5 5 7 9 10 10 11 12 12 13 13 12 12 10 8 5 5 4 4 7 10 11 11 12 13 14 15 14 14 15 16 17 17 17 18 18 17 16 16 18 22 26 28 31 34 35 35 32 31 31 34 33 28 14 353 335 303 271
167 167 165 164 165 167 173 187 176 67 30 10 5 5 5 1 0 1 2 4 5 4 5 5 6 6 7 6 6 6 8 9 10 11 12 13 13 13 13 13 11 8 6 4 3 5 9 11 13 14 14 15 16 16 16 16 16 16 18 19 19 19 18 18 16 16 18 21 24 27 31 34 36 37 36 32 29 29 32 34 33 30 31 30 18
170 172 173 173 174 176 186 203 214 284 0 351 351 357 358 356 357 360 1 2 3 2 3 4 5 5 5 5 5 6 7 8 10 11 12 13 14 13 13 13 11 10 8 6 5 7 10 12 13 14 14 15 16 17 17 17 17 17 17 19 21 21 20 18 17 18 20 21 23 26 30 32 34 37 39 39 35 31 30 34 37 37 39 39 39
175 178 181 180 181 185 193 210 230 263 313 326 335 346 351 350 353 357 358 360 1 0 1 3 3 3 3 4 5 5 6 7 9 10 11 13 14 14 14 13 12 11 10 9 9 9 10 11 13 14 15 15 16 17 18 18 18 18 18 19 21 23 22 20 19 20 21 22 24 26 29 31 32 35 38 40 41 39 36 34 34 36 39 42 42
179 183 187 188 190 192 197 214 238 261 287 305 320 332 340 342 347 351 354 356 357 358 359 1 1 1 1 3 4 4 4 6 7 8 10 12 13 14 14 14 14 14 13 13 12 11 11 11 12 13 14 15 16 17 19 19 18 17 18 19 20 22 22 22 22 22 22 23 25 27 29 30 33 35 37 38 40 41 41 39 36 36 37 38 40
183 188 193 196 198 199 202 218 240 257 273 289 305 318 327 333 339 344 348 351 352 354 356 358 359 359 359 1 2 2 2 4 6 6 8 10 11 12 12 13 14 16 16 16 15 14 13 12 11 11 12 14 16 17 18 19 19 19 18 18 19 21 22 23 24 23 23 24 26 28 29 31 33 35 38 39 39 40 42 43 44 45 43 41 43
187 193 199 202 205 207 211 222 238 252 265 278 291 304 313 321 329 336 342 345 347 349 352 354 356 356 357 358 359 0 1 2 4 5 6 7 8 9 10 11 13 15 16 17 17 17 16 14 12 11 11 13 15 16 18 19 20 20 20 20 20 21 22 24 24 24 24 26 27 28 30 31 32 33 36 39 41 41 41 43 48 53 55 55 55
190 196 203 207 210 213 219 228 238 248 259 270 280 291 300 309 318 326 333 338 340 343 346 349 351 353 354 355 357 358 359 0 2 4 5 4 5 6 8 10 12 14 16 17 18 18 18 17 15 12 11 12 13 14 16 18 20 21 22 22 21 21 23 24 25 26 27 28 28 29 30 32 32 33 34 37 40 42 42 43 46 51 58 64 66
194 200 206 211 214 217 223 231 238 246 255 265 272 280 289 297 306 315 323 329 332 336 339 343 346 347 349 351 353 355 356 358 360 1 2 2 3 4 6 8 10 12 15 16 17 18 19 19 18 15 13 13 13 13 13 16 18 20 22 23 23 22 23 23 25 26 27 29 30 31 32 32 32 33 34 35 37 40 41 42 44 46 49 56 62
197 203 209 214 217 220 225 232 239 246 253 260 267 274 281 289 296 305 313 319 324 328 332 336 339 342 344 346 348 350 352 354 356 358 359 1 2 3 5 6 8 10 13 15 16 17 19 20 20 19 17 16 16 14 14 14 16 18 20 23 24 24 23 23 24 26 27 29 30 31 33 33 33 34 35 35 35 37 38 41 44 45 45 48 52
201 207 213 218 221 223 226 232 238 245 250 256 263 270 276 283 289 295 302 309 314 318 323 328 331 335 338 340 342 345 347 349 352 354 356 358 360 1 2 5 6 8 11 14 15 16 17 19 20 21 21 21 20 18 17 16 16 17 19 21 24 25 25 24 25 26 27 29 30 31 32 33 33 33 35 36 36 36 37 39 42 45 46 47 49
205 210 215 220 223 226 228 233 239 244 249 254 260 266 273 279 284 288 293 300 304 308 314 319 322 326 331 334 336 339 341 344 347 350 352 355 357 358 360 2 4 5 8 11 14 15 16 17 18 19 21 22 23 22 21 20 19 18 19 20 22 24 26 26 26 26 27 29 30 31 32 33 33 33 34 35 37 37 37 37 39 42 46 48 49
208 212 218 223 226 228 230 234 239 243 248 253 258 264 271 276 281 285 288 292 296 300 305 310 314 318 323 326 329 331 335 338 341 345 348 351 353 355 357 359 1 3 4 8 12 14 14 15 16 17 18 20 22 23 24 24 23 22 22 21 22 23 24 25 26 27 28 28 29 31 32 34 35 35 34 34 35 37 38 38 38 40 43 46 50
212 216 221 226 229 231 233 236 239 242 247 252 257 263 268 274 279 283 286 288 290 294 298 302 306 310 315 319 322 325 328 331 335 339 343 346 349 351 353 355 357 359 1 4 8 12 13 14 15 16 16 17 19 21 22 23 24 24 24 24 24 23 23 23 25 26 27 28 28 29 30 32 34 35 36 36 35 35 36 38 39 40 41 44 47
219 222 225 229 232 235 237 239 241 244 247 252 256 261 267 272 277 281 284 286 288 291 294 296 299 303 307 311 315 318 320 323 327 331 336 340 344 346 348 350 353 355 357 360 4 8 11 12 13 15 16 16 17 18 20 21 22 23 24 24 25 25 24 24 24 24 26 26 27 27 28 29 31 33 35 36 35 34 34 34 36 38 40 41 43
225 228 230 232 235 237 239 241 244 246 248 252 255 260 264 269 274 278 282 286 288 290 291 293 295 298 302 305 309 311 313 315 319 322 327 332 336 339 342 343 345 348 351 354 358 3 7 10 11 12 14 15 16 17 18 19 20 21 22 23 24 24 25 25 24 24 24 24 25 26 26 27 29 31 33 34 35 35 33 32 32 34 35 37 39
232 234 237 238 239 241 242 244 246 248 251 253 256 259 262 266 271 276 280 283 286 288 289 290 293 295 298 300 303 305 308 310 313 316 319 323 327 331 334 336 338 340 343 346 350 355 0 5 7 9 11 13 14 16 17 18 19 20 21 22 22 22 23 24 25 25 24 23 22 22 24 25 26 28 30 31 32 34 35 33 31 30 31 33 34
237 240 242 244 245 246 247 248 250 252 254 256 257 259 262 265 269 273 276 280 282 284 285 286 289 292 295 298 300 302 305 307 309 311 313 315 319 322 324 327 329 332 334 337 340 344 350 357 1 4 7 9 11 13 15 17 18 19 20 21 21 20 20 21 22 24 24 24 23 21 20 21 23 25 26 27 27 29 32 33 32 30 29 29 30
242 245 248 249 250 252 253 254 254 255 256 258 259 260 262 264 267 270 272 275 277 279 280 282 283 286 290 293 296 299 302 305 307 308 308 309 310 314 316 318 320 322 326 329 331 333 337 344 352 357 2 5 8 10 13 16 18 19 19 20 20 20 19 18 19 20 21 22 23 22 20 19 18 19 21 22 23 24 26 27 29 30 29 26 25
246 249 251 252 254 256 257 259 260 260 260 260 260 261 263 264 266 268 270 271 273 276 277 278 279 280 283 287 291 294 297 300 302 303 304 304 303 305 308 310 311 313 317 320 323 325 327 330 337 345 352 357 2 5 8 12 15 18 19 19 19 19 18 17 17 16 17 18 19 20 20 20 18 16 16 16 18 20 21 21 22 25 26 25 22
247 250 252 254 256 258 260 263 266 267 266 265 264 264 265 266 267 268 270 270 272 274 275 275 276 276 277 280 284 286 290 293 295 297 298 299 298 298 300 302 304 306 308 312 316 319 320 320 323 329 337 345 351 355 -0 4 8 12 15 16 17 17 17 16 15 14 14 14 14 15 16 17 18 17 16 14 13 13 14 15 16 17 18 19 18
Height
3147 3148 3148 3149 3150 3150 3151 3151 3152 3152 3152 3152 3152 3152 3151 3151 3150 3150 3149 3148 3147 3146 3145 3143 3142 3140 3139 3137 3136 3134 3132 3131 3129 3127 3125 3123 3122 3120 3118 3116 3115 3113 3111 3109 3107 3105 3103 3101 3099 3097 3096 3094 3093 3092 3091 3090 3089 3088 3087 3085 3085 3084 3082 3079 3075 3074 3078 3079 3078 3079 3080 3078 3078 3079 3078 3078 3078 3078 3077 3078 3079 3079 3080 3082 3083
3146 3146 3147 3148 3148 3149 3149 3149 3150 3150 3150 3150 3149 3149 3149 3148 3148 3147 3146 3145 3144 3143 3142 3140 3139 3137 3136 3134 3133 3131 3129 3128 3126 3124 3122 3120 3118 3116 3115 3113 3111 3109 3107 3105 3104 3101 3099 3097 3095 3093 3091 3089 3088 3086 3085 3084 3083 3082 3081 3079 3078 3078 3076 3074 3070 3068 3070 3073 3073 3073 3074 3073 3073 3074 3073 3073 3074 3073 3072 3073 3073 3073 3074 3076 3077
3145 3145 3146 3146 3147 3147 3148 3148 3148 3148 3148 3148 3147 3147 3146 3146 3145 3144 3143 3142 3141 3140 3138 3137 3136 3134 3133 3131 3130 3128 3126 3125 3123 3121 3120 3118 3116 3113 3111 3109 3107 3106 3104 3102 3100 3098 3095 3093 3091 3089 3087 3085 3083 3081 3079 3078 3076 3075 3075 3074 3072 3072 3071 3068 3066 3063 3062 3065 3066 3066 3067 3068 3068 3069 3068 3067 3068 3068 3067 3067 3068 3068 3069 3070 3071
3144 3144 3145 3145 3146 3146 3146 3146 3146 3146 3146 3146 3145 3145 3144 3144 3143 3142 3140 3139 3138 3137 3136 3134 3133 3131 3130 3129 3127 3125 3124 3122 3120 3119 3117 3115 3113 3111 3109 3107 3105 3102 3100 3098 3096 3094 3091 3089 3086 3084 3082 3080 3078 3077 3074 3072 3071 3069 3068 3067 3066 3065 3065 3063 3061 3058 3056 3057 3059 3060 3060 3061 3062 3063 3062 3061 3062 3062 3062 3062 3062 3062 3063 3064 3066
3143 3143 3144 3144 3144 3145 3145 3145 3145 3145 3144 3144 3143 3143 3142 3141 3140 3139 3138 3137 3136 3134 3133 3132 3130 3129 3128 3126 3125 3123 3121 3120 3118 3117 3115 3113 3111 3109 3107 3105 3102 3100 3097 3095 3092 3090 3087 3085 3082 3079 3077 3075 3073 3071 3069 3067 3066 3064 3062 3061 3059 3058 3058 3057 3055 3053 3050 3049 3052 3053 3053 3054 3055 3056 3057 3056 3056 3056 3056 3056 3056 3057 3057 3058 3059
3141 3142 3143 3143 3143 3143 3143 3143 3143 3143 3142 3142 3141 3141 3140 3139 3138 3137 3136 3135 3134 3132 3131 3130 3128 3127 3126 3125 3123 3122 3120 3118 3117 3115 3113 3111 3109 3107 3104 3102 3099 3097 3094 3091 3089 3086 3083 3080 3078 3075 3072 3070 3067 3065 3063 3061 3059 3058 3056 3054 3053 3051 3051 3050 3049 3047 3045 3044 3044 3046 3046 3047 3047 3049 3050 3050 3049 3049 3049 3050 3050 3051 3051 3052 3053
3140 3141 3141 3141 3142 3142 3142 3142 3141 3141 3141 3140 3140 3139 3138 3137 3136 3135 3134 3133 3132 3130 3129 3128 3127 3126 3125 3123 3122 3121 3119 3117 3115 3113 3111 3109 3107 3104 3102 3099 3097 3094 3091 3088 3085 3082 3079 3076 3073 3071 3068 3065 3062 3059 3057 3054 3053 3051 3049 3047 3046 3044 3043 3043 3042 3040 3039 3038 3038 3038 3039 3039 3040 3041 3043 3044 3043 3042 3043 3043 3044 3044 3045 3046 3047
3139 3139 3139 3140 3140 3140 3140 3140 3140 3139 3139 3138 3138 3137 3136 3136 3135 3134 3133 3131 3130 3129 3128 3127 3126 3125 3124 3122 3121 3119 3117 3116 3114 3111 3109 3106 3104 3102 3099 3097 3094 3091 3088 3085 3082 3079 3076 3073 3070 3067 3063 3060 3057 3054 3051 3048 3045 3044 3042 3040 3038 3037 3036 3035 3034 3033 3032 3031 3031 3032 3032 3031 3032 3034 3036 3037 3035 3036 3038 3038 3037 3038 3039 3040 3041
3137 3138 3138 3138 3138 3138 3138 3138 3138 3137 3137 3136 3136 3135 3135 3134 3134 3133 3131 3130 3130 3129 3128 3127 3125 3124 3123 3121 3120 3118 3116 3114 3112 3109 3107 3104 3101 3099 3096 3093 3090 3088 3085 3082 3079 3076 3072 3070 3066 3063 3060 3057 3054 3051 3048 3044 3040 3037 3035 3033 3030 3028 3027 3027 3026 3025 3024 3023 3024 3025 3024 3024 3025 3027 3029 3030 3030 3030 3032 3031 3031 3032 3033 3034 3035
3136 3136 3137 3137 3137 3137 3137 3136 3136 3136 3135 3135 3135 3134 3134 3133 3132 3132 3131 3130 3129 3128 3127 3126 3125 3123 3122 3120 3118 3116 3114 3112 3109 3107 3104 3102 3099 3096 3093 3090 3087 3084 3081 3078 3075 3072 3069 3066 3062 3059 3056 3053 3050 3047 3044 3041 3037 3033 3030 3027 3023 3020 3019 3018 3018 3017 3016 3015 3016 3017 3016 3017 3019 3020 3021 3023 3024 3025 3025 3025 3025 3027 3028 3027 3028
3134 3135 3135 3135 3135 3135 3135 3135 3135 3134 3134 3134 3134 3133 3133 3132 3132 3131 3130 3130 3129 3128 3127 3125 3124 3123 3121 3119 3117 3115 3113 3110 3108 3105 3102 3099 3096 3093 3090 3087 3084 3081 3078 3075 3072 3069 3065 3062 3058 3055 3051 3048 3044 3042 3039 3037 3034 3030 3027 3023 3020 3016 3012 3009 3008 3008 3008 3006 3007 3009 3008 3009 3012 3013 3013 3015 3017 3019 3019 3019 3019 3020 3021 3020 3021
3133 3133 3134 3134 3134 3134 3134 3133 3133 3133 3133 3133 3133 3133 3132 3132 3131 3131 3130 3129 3128 3127 3126 3125 3123 3122 3120 3118 3116 3114 3111 3108 3106 3103 3100 3097 3094 3091 3088 3085 3082 3078 3075 3071 3067 3064 3061 3057 3054 3051 3047 3043 3039 3035 3033 3030 3028 3025 3022 3019 3016 3012 3008 3004 3001 3000 2999 2998 2998 3000 3001 3002 3004 3006 3007 3008 3010 3011 3012 3013 3013 3014 3015 3014 3015
3132 3132 3132 3132 3132 3132 3132 3132 3133 3133 3133 3133 3132 3132 3132 3131 3131 3130 3130 3129 3128 3126 3125 3124 3122 3120 3118 3116 3114 3112 3109 3107 3104 3101 3099 3096 3093 3089 3086 3082 3078 3075 3071 3067 3063 3060 3056 3053 3050 3046 3043 3039 3034 3030 3026 3023 3021 3018 3016 3013 3010 3008 3004 3000 2997 2993 2991 2990 2988 2990 2994 2994 2995 2999 3001 3001 3001 3003 3005 3006 3007 3008 3009 3009 3009
3130 3131 3131 3131 3131 3131 3131 3132 3132 3132 3132 3132 3132 3132 3131 3131 3130 3130 3129 3128 3127 3125 3124 3122 3121 3119 3117 3115 3113 3110 3108 3106 3103 3100 3097 3094 3091 3087 3084 3080 3076 3072 3068 3064 3060 3056 3052 3048 3045 3041 3038 3034 3030 3025 3021 3017 3014 3011 3009 3006 3004 3001 2998 2995 2992 2989 2986 2984 2981 2981 2985 2986 2987 2991 2994 2994 2993 2995 2997 2999 3001 3002 3003 3003 3005
3129 3129 3130 3130 3130 3131 3131 3132 3132 3132 3132 3132 3132 3131 3131 3130 3130 3129 3128 3127 3126 3124 3123 3121 3119 3117 3115 3113 3111 3109 3107 3105 3102 3099 3096 3093 3089 3086 3082 3078 3074 3070 3066 3062 3057 3053 3049 3045 3042 3038 3034 3030 3026 3022 3017 3013 3009 3005 3002 3000 2997 2995 2992 2989 2986 2983 2981 2978 2976 2974 2976 2978 2979 2983 2986 2987 2986 2988 2990 2992 2994 2996 2997 2997 2999
3128 3128 3129 3129 3129 3130 3131 3131 3131 3131 3131 3131 3131 3131 3130 3130 3129 3128 3127 3126 3125 3123 3121 3120 3118 3116 3114 3112 3110 3108 3106 3103 3101 3098 3095 3091 3088 3084 3080 3076 3072 3068 3064 3060 3056 3051 3047 3043 3039 3035 3031 3028 3024 3019 3014 3010 3005 3001 2998 2995 2992 2989 2987 2984 2981 2978 2975 2973 2971 2969 2969 2970 2971 2975 2979 2980 2979 2981 2984 2985 2987 2989 2990 2991 2992
3127 3127 3128 3128 3129 3130 3130 3131 3131 3131 3131 3131 3130 3130 3130 3129 3128 3127 3126 3125 3123 3122 3120 3119 3117 3115 3113 3111 3109 3107 3104 3102 3099 3096 3093 3090 3086 3083 3079 3075 3071 3067 3063 3059 3055 3051 3046 3042 3038 3034 3030 3025 3021 3016 3012 3007 3002 2997 2993 2990 2987 2984 2981 2979 2976 2973 2970 2967 2965 2964 2963 2963 2964 2967 2971 2972 2973 2975 2976 2976 2979 2983 2985 2985 2986
3126 3126 3127 3128 3129 3129 3130 3130 3130 3130 3130 3130 3130 3130 3129 3128 3127 3126 3125 3124 3122 3121 3119 3118 3116 3114 3112 3110 3108 3105 3103 3100 3097 3094 3091 3088 3084 3081 3077 3073 3069 3065 3062 3058 3054 3050 3046 3042 3037 3033 3028 3023 3019 3014 3009 3004 2999 2994 2990 2986 2983 2979 2976 2973 2970 2968 2966 2963 2960 2958 2958 2958 2957 2960 2964 2965 2966 2968 2969 2969 2974 2978 2978 2979 2981
3125 3126 3127 3128 3128 3129 3129 3129 3130 3130 3130 3130 3130 3129 3128 3127 3126 3125 3124 3123 3121 3120 3118 3117 3115 3113 3111 3109 3106 3104 3101 3099 3096 3092 3089 3086 3082 3079 3075 3071 3067 3063 3060 3056 3052 3049 3045 3041 3037 3032 3027 3023 3018 3013 3007 3002 2997 2992 2987 2983 2979 2976 2972 2968 2964 2961 2959 2957 2955 2953 2953 2953 2952 2953 2957 2959 2960 2962 2963 2965 2969 2971 2972 2974 2977
3124 3125 3126 3127 3128 3128 3129 3129 3129 3129 3129 3129 3129 3128 3127 3126 3125 3124 3123 3122 3120 3119 3117 3116 3114 3112 3110 3108 3106 3103 3100 3097 3094 3091 3087 3084 3080 3077 3073 3069 3065 3061 3057 3054 3050 3047 3043 3039 3035 3031 3026 3022 3017 3012 3007 3001 2996 2992 2986 2981 2977 2972 2968 2965 2961 2957 2954 2951 2949 2948 2948 2948 2948 2948 2950 2952 2954 2956 2958 2960 2963 2965 2967 2969 2971
3124 3125 3126 3127 3127 3128 3128 3128 3129 3129 3129 3128 3128 3126 3125 3125 3124 3123 3122 3121 3120 3118 3117 3115 3113 3111 3109 3107 3104 3102 3099 3096 3093 3089 3086 3083 3079 3075 3071 3067 3063 3059 3056 3053 3049 3045 3041 3037 3033 3029 3025 3021 3016 3011 3006 3001 2997 2992 2986 2981 2976 2971 2967 2963 2959 2955 2951 2948 2945 2944 2943 2943 2943 2944 2945 2947 2948 2951 2953 2955 2958 2960 2962 2964 2966
3123 3124 3125 3126 3127 3127 3128 3128 3128 3128 3128 3127 3126 3125 3125 3124 3123 3122 3121 3120 3119 3117 3116 3114 3112 3110 3108 3106 3103 3101 3098 3095 3092 3089 3085 3082 3078 3074 3070 3066 3063 3059 3056 3052 3048 3044 3040 3036 3032 3028 3024 3020 3016 3011 3006 3002 2997 2992 2987 2982 2977 2971 2966 2962 2958 2954 2949 2945 2943 2940 2939 2938 2939 2939 2941 2942 2944 2946 2949 2951 2953 2955 2957 2959 2960
3123 3124 3125 3125 3126 3127 3127 3127 3127 3127 3126 3126 3125 3125 3124 3123 3122 3121 3120 3119 3118 3117 3115 3113 3111 3109 3107 3105 3102 3100 3097 3094 3091 3088 3085 3081 3077 3074 3070 3066 3063 3059 3056 3052 3047 3043 3039 3035 3032 3028 3024 3021 3016 3012 3007 3002 2997 2991 2987 2982 2977 2971 2966 2961 2957 2952 2948 2944 2940 2938 2936 2935 2935 2935 2937 2938 2940 2942 2944 2946 2948 2950 2952 2954 2956
3122 3123 3124 3125 3126 3126 3126 3126 3126 3126 3125 3125 3125 3124 3124 3123 3122 3121 3120 3119 3118 3116 3115 3113 3111 3109 3107 3104 3102 3099 3096 3094 3091 3088 3084 3081 3077 3074 3070 3067 3063 3060 3056 3051 3047 3043 3039 3035 3032 3029 3025 3021 3017 3012 3008 3002 2997 2992 2987 2982 2976 2971 2965 2960 2955 2951 2947 2942 2938 2935 2933 2932 2931 2932 2933 2935 2936 2938 2940 2942 2944 2946 2948 2949 2951
3121 3122 3123 3124 3125 3125 3125 3125 3125 3125 3125 3125 3124 3124 3123 3122 3121 3120 3119 3118 3117 3116 3114 3112 3110 3109 3106 3104 3102 3099 3096 3094 3091 3088 3084 3081 3077 3074 3071 3067 3064 3060 3055 3051 3047 3043 3040 3036 3033 3029 3026 3022 3017 3013 3008 3003 2998 2992 2987 2982 2976 2970 2965 2960 2954 2950 2946 2942 2938 2934 2932 2930 2929 2929 2930 2931 2933 2934 2936 2938 2939 2941 2943 2944 2947
3121 3122 3122 3123 3124 3124 3124 3124 3125 3125 3125 3124 3124 3123 3123 3122 3121 3120 3119 3118 3117 3115 3114 3112 3110 3108 3106 3104 3101 3099 3096 3094 3091 3088 3085 3081 3078 3074 3071 3068 3064 3060 3056 3052 3049 3045 3041 3037 3034 3030 3026 3022 3017 3013 3008 3003 2998 2993 2988 2982 2976 2971 2966 2960 2955 2950 2946 2942 2938 2935 2932 2929 2928 2928 2928 2929 2930 2931 2933 2934 2936 2937 2939 2941 2942
3120 3121 3121 3122 3123 3123 3123 3124 3124 3124 3124 3124 3123 3123 3122 3122 3121 3120 3119 3118 3117 3115 3114 3112 3110 3107 3105 3103 3100 3098 3095 3093 3090 3088 3084 3081 3077 3074 3071 3067 3064 3060 3056 3052 3048 3045 3041 3038 3034 3030 3027 3023 3018 3014 3009 3004 2999 2994 2988 2983 2978 2973 2968 2963 2957 2952 2948 2943 2939 2936 2933 2930 2928 2927 2927 2927 2928 2929 2930 2931 2932 2934 2936 2937 2938
3119 3120 3120 3121 3122 3122 3123 3123 3123 3124 3123 3123 3123 3122 3122 3121 3121 3120 3119 3117 3116 3115 3113 3112 3109 3107 3105 3102 3099 3097 3094 3092 3089 3086 3083 3080 3077 3073 3070 3066 3062 3059 3055 3052 3048 3045 3042 3039 3035 3032 3028 3023 3019 3014 3010 3005 2999 2994 2989 2984 2979 2975 2971 2965 2960 2955 2950 2945 2941 2938 2935 2931 2928 2926 2926 2926 2926 2927 2928 2929 2930 2931 2933 2934 2934
3118 3119 3119 3120 3121 3121 3122 3122 3123 3123 3123 3122 3122 3122 3121 3121 3120 3119 3118 3117 3116 3114 3112 3111 3109 3107 3104 3102 3099 3096 3094 3091 3088 3085 3082 3079 3075 3072 3068 3065 3061 3058 3055 3052 3049 3046 3043 3040 3036 3032 3028 3023 3019 3014 3010 3005 3001 2996 2991 2986 2981 2976 2971 2966 2960 2956 2952 2947 2942 2939 2936 2932 2929 2927 2927 2926 2926 2927 2927 2928 2928 2929 2930 2931 2931
3117 3118 3118 3119 3120 3121 3121 3122 3122 3122 3122 3122 3121 3121 3120 3120 3119 3119 3118 3116 3115 3113 3111 3109 3107 3105 3103 3101 3098 3096 3093 3090 3088 3085 3082 3079 3076 3072 3069 3065 3062 3059 3056 3053 3050 3047 3044 3040 3036 3031 3027 3023 3018 3014 3010 3005 3001 2997 2992 2988 2983 2978 2973 2968 2963 2959 2955 2950 2945 2941 2938 2934 2931 2929 2928 2927 2927 2927 2927 2927 2927 2928 2928 2928 2929
3116 3117 3117 3118 3119 3120 3120 3121 3121 3121 3121 3121 3120 3120 3119 3119 3118 3118 3117 3115 3114 3112 3110 3109 3106 3104 3102 3100 3097 3095 3092 3090 3088 3085 3082 3079 3076 3073 3070 3066 3063 3060 3057 3054 3051 3048 3045 3040 3036 3032 3027 3023 3019 3015 3011 3007 3003 2998 2994 2989 2984 2979 2975 2970 2966 2962 2958 2954 2949 2945 2941 2937 2934 2932 2930 2929 2928 2928 2928 2928 2927 2927 2927 2926 2927
3115 3116 3117 3118 3118 3119 3119 3120 3120 3120 3120 3120 3119 3119 3119 3118 3117 3117 3116 3114 3113 3111 3110 3108 3106 3104 3102 3100 3097 3095 3093 3090 3088 3085 3082 3079 3076 3073 3070 3067 3064 3061 3058 3055 3052 3048 3045 3041 3036 3032 3028 3024 3020 3017 3013 3008 3004 3000 2996 2992 2987 2982 2978 2974 2970 2967 2962 2957 2953 2949 2945 2941 2938 2935 2933 2932 2930 2930 2929 2928 2927 2927 2927 2926 2927
3114 3115 3116 3117 3117 3118 3118 3119 3119 3119 3119 3119 3118 3118 3118 3117 3116 3115 3114 3113 3112 3110 3109 3107 3105 3103 3102 3100 3098 3095 3093 3090 3088 3085 3082 3079 3076 3073 3070 3067 3064 3062 3059 3056 3053 3049 3045 3041 3037 3034 3030 3026 3022 3019 3015 3011 3007 3003 2998 2994 2990 2986 2982 2979 2975 2971 2966 2962 2958 2954 2949 2946 2943 2940 2937 2935 2933 2931 2930 2929 2928 2928 2928 2928 2927
3113 3114 3115 3116 3116 3117 3117 3117 3117 3118 3118 3117 3117 3117 3116 3116 3115 3114 3113 3112 3111 3109 3108 3106 3105 3103 3101 3099 3097 3095 3093 3090 3088 3086 3083 3080 3077 3074 3071 3068 3066 3063 3060 3056 3053 3049 3046 3042 3039 3035 3031 3028 3024 3021 3017 3013 3009 3005 3001 2997 2994 2990 2987 2983 2979 2974 2970 2967 2963 2958 2954 2951 2948 2944 2941 2939 2937 2935 2933 2931 2931 2930 2930 2929 2929
3112 3113 3114 3114 3115 3116 3116 3116 3116 3116 3116 3116 3116 3116 3115 3115 3114 3113 3112 3111 3110 3108 3107 3105 3104 3102 3101 3099 3096 3094 3092 3090 3088 3086 3083 3081 3078 3075 3073 3070 3067 3064 3060 3056 3053 3049 3046 3043 3040 3037 3033 3030 3026 3023 3019 3015 3011 3007 3004 3000 2997 2993 2990 2986 2982 2978 2975 2971 2967 2963 2960 2956 2953 2949 2946 2944 2941 2939 2937 2935 2934 2933 2932 2931 2931
3111 3112 3112 3113 3114 3114 3115 3115 3115 3115 3115 3115 3115 3114 3114 3113 3113 3112 3111 3110 3109 3107 3106 3105 3103 3102 3100 3098 3096 3094 3092 3090 3088 3085 3083 3080 3078 3076 3073 3070 3067 3064 3060 3057 3054 3050 3047 3044 3041 3038 3035 3032 3028 3025 3021 3017 3014 3010 3006 3003 3000 2996 2992 2989 2985 2982 2979 2976 2972 2968 2965 2961 2958 2955 2952 2949 2947 2945 2943 2941 2939 2937 2936 2935 2934
3109 3110 3111 3112 3112 3113 3113 3114 3114 3114 3114 3114 3113 3113 3112 3112 3111 3111 3110 3109 3107 3106 3105 3104 3102 3101 3099 3097 3096 3094 3092 3089 3087 3085 3082 3080 3078 3075 3073 3070 3067 3064 3061 3058 3055 3052 3048 3045 3042 3039 3036 3033 3030 3027 3023 3020 3016 3013 3010 3006 3003 2999 2996 2993 2990 2986 2983 2979 2976 2973 2969 2966 2963 2960 2957 2955 2952 2950 2949 2947 2945 2943 2942 2941 2939
3108 3109 3110 3110 3111 3111 3112 3112 3112 3112 3112 3112 3112 3111 3111 3110 3110 3109 3108 3107 3106 3105 3104 3103 3101 3100 3099 3097 3095 3093 3091 3089 3087 3084 3082 3080 3078 3076 3073 3071 3068 3065 3062 3059 3056 3053 3050 3047 3044 3041 3038 3035 3032 3029 3026 3022 3019 3016 3012 3009 3006 3003 3000 2997 2994 2990 2986 2983 2980 2976 2973 2970 2968 2965 2963 2960 2958 2956 2954 2952 2951 2949 2948 2947 2945
3107 3107 3108 3109 3109 3110 3110 3111 3111 3111 3111 3111 3110 3110 3109 3109 3108 3108 3107 3106 3105 3104 3103 3102 3100 3099 3098 3096 3095 3093 3091 3089 3087 3085 3083 3081 3079 3076 3074 3071 3068 3066 3063 3060 3057 3054 3051 3048 3045 3042 3039 3036 3033 3030 3028 3024 3021 3018 3015 3012 3009 3005 3002 2999 2996 2993 2990 2986 2983 2981 2978 2975 2972 2970 2968 2965 2963 2961 2960 2958 2956 2955 2953 2952 2951
3105 3106 3106 3107 3108 3108 3109 3109 3109 3109 3109 3109 3109 3108 3108 3107 3106 3106 3105 3104 3103 3102 3101 3100 3099 3098 3097 3095 3094 3092 3091 3089 3087 3085 3083 3081 3079 3076 3074 3072 3069 3066 3064 3061 3058 3056 3053 3050 3047 3044 3041 3038 3035 3032 3029 3026 3023 3020 3017 3014 3011 3008 3005 3002 2999 2996 2993 2990 2987 2984 2982 2980 2977 2975 2973 2970 2968 2966 2965 2963 2961 2960 2958 2957 2956
3103 3104 3105 3105 3106 3106 3107 3107 3107 3107 3107 3107 3107 3106 3106 3105 3105 3104 3103 3103 3102 3101 3100 3099 3098 3097 3095 3094 3093 3091 3090 3088 3086 3084 3082 3080 3078 3076 3074 3072 3070 3067 3064 3062 3059 3057 3054 3051 3049 3046 3043 3040 3037 3034 3031 3028 3025 3023 3020 3017 3014 3011 3008 3005 3002 2999 2997 2994 2991 2988 2986 2983 2981 2979 2977 2975 2973 2971 2970 2968 2966 2965 2963 2962 2961
3101 3102 3103 3103 3104 3104 3105 3105 3105 3105 3105 3105 3105 3104 3104 3103 3103 3102 3102 3101 3100 3099 3098 3097 3096 3095 3094 3093 3092 3090 3089 3087 3086 3084 3082 3080 3078 3076 3074 3072 3069 3067 3065 3062 3060 3057 3055 3052 3050 3047 3045 3042 3039 3036 3033 3030 3027 3024 3021 3019 3016 3013 3011 3008 3005 3003 3000 2997 2994 2992 2989 2987 2985 2983 2982 2980 2978 2976 2974 2973 2971 2970 2968 2967 2966
3099 3100 3101 3101 3102 3102 3103 3103 3103 3103 3103 3103 3102 3102 3101 3101 3101 3100 3100 3099 3098 3097 3097 3096 3095 3093 3092 3091 3090 3089 3088 3086 3085 3083 3081 3079 3077 3075 3073 3071 3069 3067 3065 3063 3060 3058 3055 3053 3051 3048 3046 3043 3040 3037 3035 3032 3029 3026 3023 3021 3018 3015 3013 3011 3008 3005 3003 3000 2998 2996 2993 2991 2989 2987 2986 2984 2982 2981 2979 2977 2976 2974 2973 2972 2971
3097 3098 3098 3099 3100 3100 3100 3101 3101 3101 3101 3101 3100 3100 3099 3099 3098 3098 3097 3097 3096 3095 3095 3094 3093 3092 3091 3090 3088 3087 3086 3085 3083 3082 3080 3078 3077 3075 3073 3071 3069 3067 3065 3063 3061 3058 3056 3054 3051 3049 3047 3044 3042 3039 3036 3033 3031 3028 3025 3022 3020 3017 3015 3013 3010 3008 3005 3003 3001 2999 2997 2995 2993 2991 2989 2987 2986 2985 2983 2982 2980 2978 2977 2976 2975
3095 3095 3096 3097 3098 3098 3098 3098 3098 3098 3098 3098 3098 3097 3097 3097 3096 3096 3095 3095 3094 3093 3093 3092 3091 3090 3089 3088 3087 3086 3084 3083 3082 3080 3079 3077 3076 3074 3072 3070 3069 3067 3065 3063 3061 3059 3057 3055 3052 3050 3048 3045 3043 3040 3038 3035 3032 3030 3027 3024 3021 3019 3016 3014 3012 3010 3008 3006 3004 3002 3000 2998 2996 2994 2992 2990 2989 2988 2986 2985 2984 2983 2981 2980 2979
3092 3093 3094 3095 3095 3095 3096 3096 3096 3096 3096 3095 3095 3095 3094 3094 3094 3093 3093 3092 3092 3091 3090 3090 3089 3088 3087 3086 3085 3084 3083 3082 3080 3079 3077 3076 3074 3073 3072 3070 3068 3066 3065 3063 3061 3059 3057 3055 3053 3051 3049 3046 3044 3041 3039 3036 3034 3031 3029 3026 3023 3021 3018 3016 3014 3012 3010 3008 3006 3004 3002 3001 2999 2997 2995 2993 2992 2991 2989 2988 2987 2986 2985 2984 2983
3090 3090 3091 3092 3092 3093 3093 3093 3093 3093 3093 3093 3092 3092 3092 3091 3091 3091 3090 3089 3089 3088 3088 3087 3087 3086 3085 3084 3083 3082 3081 3080 3079 3077 3076 3074 3073 3072 3070 3069 3067 3066 3064 3063 3061 3059 3057 3055 3053 3051 3049 3047 3045 3042 3040 3038 3035 3033 3030 3028 3025 3023 3021 3018 3016 3014 3012 3010 3008 3006 3005 3003 3001 3000 2998 2996 2995 2994 2992 2991 2990 2989 2988 2987 2986
3087 3088 3088 3089 3089 3090 3090 3090 3090 3090 3090 3090 3090 3089 3089 3088 3088 3088 3087 3087 3086 3086 3085 3084 3084 3083 3083 3082 3081 3080 3079 3078 3077 3075 3074 3073 3071 3070 3069 3068 3066 3065 3063 3062 3060 3058 3057 3055 3053 3051 3049 3047 3045 3043 3041 3039 3036 3034 3032 3029 3027 3025 3023 3020 3018 3016 3014 3012 3010 3008 3006 3005 3003 3002 3000 2999 2997 2996 2995 2994 2993 2992 2991 2990 2989
3084 3085 3085 3086 3086 3087 3087 3087 3087 3087 3087 3087 3087 3087 3086 3086 3085 3085 3084 3084 3083 3082 3082 3081 3081 3080 3080 3079 3078 3077 3076 3075 3074 3073 3072 3071 3069 3068 3067 3066 3065 3064 3062 3061 3059 3057 3056 3054 3052 3051 3049 3047 3045 3043 3041 3039 3037 3035 3033 3030 3028 3026 3024 3022 3020 3018 3015 3013 3012 3010 3008 3007 3005 3004 3002 3001 2999 2998 2997 2996 2995 2994 2993 2992 2991
3082 3082 3082 3083 3083 3084 3084 3084 3084 3084 3084 3084 3084 3083 3083 3082 3082 3082 3081 3081 3080 3079 3079 3078 3078 3077 3076 3076 3075 3074 3073 3073 3072 3071 3070 3069 3067 3066 3065 3064 3063 3062 3061 3059 3058 3056 3055 3053 3052 3050 3049 3047 3045 3043 3041 3040 3037 3035 3033 3031 3029 3027 3025 3023 3021 3019 3017 3015 3013 3011 3010 3008 3006 3005 3004 3002 3001 3000 2999 2997 2996 2995 2995 2994 2993
3078 3079 3079 3080 3080 3080 3081 3081 3081 3081 3081 3081 3080 3080 3080 3079 3079 3079 3078 3077 3077 3076 3076 3075 3074 3074 3073 3072 3072 3071 3070 3070 3069 3068 3067 3066 3065 3064 3063 3062 3061 3060 3059 3057 3056 3055 3053 3052 3050 3049 3047 3046 3045 3043 3041 3039 3037 3035 3034 3032 3030 3028 3026 3024 3022 3020 3018 3016 3014 3013 3011 3009 3008 3006 3005 3003 3002 3001 3000 2999 2998 2997 2996 2995 2994